Time,TemperatureF,DewpointF,PressureIn,WindDirection,WindDirectionDegrees,WindSpeedMPH,WindSpeedGustMPH,Humidity,HourlyPrecipIn,Conditions,Clouds,dailyrainin,SolarRadiationWatts/m^2,SoftwareType,DateUTC
2013-09-01 00:03:00,-999.0,-99.9,-100.00,SSW,207,0.0,7.0,-999,-99.99,,,-99.99,0.000000,,2013-09-01 04:03:00,
2013-09-01 00:43:00,68.0,67.0,-100.00,West,261,2.0,6.0,97,0.06,,,0.28,0.000000,,2013-09-01 04:43:00,
2013-09-01 00:54:00,68.0,67.0,-100.00,West,261,2.0,6.0,97,0.06,,,0.28,0.000000,,2013-09-01 04:54:00,
2013-09-01 01:03:00,68.0,67.0,-100.00,West,261,2.0,6.0,97,0.06,,,0.28,0.000000,,2013-09-01 05:03:00,
2013-09-01 01:43:00,68.0,67.0,-100.00,NW,320,3.0,9.0,97,0.00,,,0.28,0.000000,,2013-09-01 05:43:00,
2013-09-01 01:52:00,68.0,67.0,-100.00,NW,320,3.0,9.0,97,0.00,,,0.28,0.000000,,2013-09-01 05:52:00,
2013-09-01 02:02:00,68.0,67.0,-100.00,NW,320,3.0,9.0,97,0.00,,,0.28,0.000000,,2013-09-01 06:02:00,
2013-09-01 02:42:00,68.0,67.0,-100.00,SW,235,3.0,8.0,97,0.04,,,0.32,0.000000,,2013-09-01 06:42:00,
2013-09-01 02:52:00,68.0,67.0,-100.00,SW,235,3.0,8.0,97,0.04,,,0.32,0.000000,,2013-09-01 06:52:00,
2013-09-01 03:02:00,68.0,67.0,-100.00,SW,235,3.0,8.0,97,0.04,,,0.32,0.000000,,2013-09-01 07:02:00,
2013-09-01 03:42:00,68.0,67.0,-100.00,WSW,244,1.0,11.0,98,0.04,,,0.36,0.000000,,2013-09-01 07:42:00,
2013-09-01 03:52:00,68.0,67.0,-100.00,WSW,244,1.0,11.0,98,0.04,,,0.36,0.000000,,2013-09-01 07:52:00,
2013-09-01 04:02:00,68.0,67.0,-100.00,WSW,244,1.0,11.0,98,0.04,,,0.36,0.000000,,2013-09-01 08:02:00,
2013-09-01 04:43:00,68.0,67.0,-100.00,WNW,299,1.0,10.0,98,0.02,,,0.38,0.000000,,2013-09-01 08:43:00,
2013-09-01 04:52:00,68.0,67.0,-100.00,WNW,299,1.0,10.0,98,0.02,,,0.38,0.000000,,2013-09-01 08:52:00,
2013-09-01 05:02:00,68.0,67.0,-100.00,WNW,299,1.0,10.0,98,0.02,,,0.38,0.000000,,2013-09-01 09:02:00,
2013-09-01 05:43:00,67.0,66.0,-100.00,SSW,195,1.0,6.0,98,0.00,,,0.38,0.000000,,2013-09-01 09:43:00,
2013-09-01 05:53:00,67.0,66.0,-100.00,SSW,195,1.0,6.0,98,0.00,,,0.38,0.000000,,2013-09-01 09:53:00,
2013-09-01 06:03:00,67.0,66.0,-100.00,SSW,195,1.0,6.0,98,0.00,,,0.38,0.000000,,2013-09-01 10:03:00,
2013-09-01 06:42:00,67.0,67.0,-100.00,West,265,3.0,7.0,99,0.00,,,0.38,0.000000,,2013-09-01 10:42:00,
2013-09-01 06:53:00,67.0,67.0,-100.00,West,265,3.0,7.0,99,0.00,,,0.38,0.000000,,2013-09-01 10:53:00,
2013-09-01 07:02:00,67.0,67.0,-100.00,West,265,3.0,7.0,99,0.00,,,0.38,0.000000,,2013-09-01 11:02:00,
2013-09-01 07:42:00,67.0,66.0,-100.00,WNW,298,1.0,7.0,98,0.00,,,0.38,0.000000,,2013-09-01 11:42:00,
2013-09-01 07:52:00,67.0,66.0,-100.00,WNW,298,1.0,7.0,98,0.00,,,0.38,0.000000,,2013-09-01 11:52:00,
2013-09-01 08:01:00,67.0,66.0,-100.00,WNW,298,1.0,7.0,98,0.00,,,0.38,0.000000,,2013-09-01 12:01:00,
2013-09-01 08:42:00,67.0,67.0,-100.00,SE,136,0.0,3.0,99,0.00,,,0.38,21.000000,,2013-09-01 12:42:00,
2013-09-01 08:52:00,67.0,67.0,-100.00,SE,136,0.0,3.0,99,0.00,,,0.38,21.000000,,2013-09-01 12:52:00,
2013-09-01 09:02:00,67.0,67.0,-100.00,SE,136,0.0,3.0,99,0.00,,,0.38,21.000000,,2013-09-01 13:02:00,
2013-09-01 09:42:00,70.0,69.0,-100.00,ENE,70,0.0,2.0,96,0.00,,,0.38,92.000000,,2013-09-01 13:42:00,
2013-09-01 09:52:00,70.0,69.0,-100.00,ENE,70,0.0,2.0,96,0.00,,,0.38,92.000000,,2013-09-01 13:52:00,
2013-09-01 10:02:00,70.0,69.0,-100.00,ENE,70,0.0,2.0,96,0.00,,,0.38,92.000000,,2013-09-01 14:02:00,
2013-09-01 10:42:00,76.0,70.0,-100.00,West,262,0.0,4.0,83,0.00,,,0.38,329.000000,,2013-09-01 14:42:00,
2013-09-01 10:52:00,76.0,70.0,-100.00,West,262,0.0,4.0,83,0.00,,,0.38,329.000000,,2013-09-01 14:52:00,
2013-09-01 11:02:00,76.0,70.0,-100.00,West,262,0.0,4.0,83,0.00,,,0.38,329.000000,,2013-09-01 15:02:00,
2013-09-01 11:45:00,79.0,70.0,-100.00,WSW,242,1.0,8.0,75,0.01,,,0.39,475.000000,,2013-09-01 15:45:00,
2013-09-01 11:55:00,79.0,70.0,-100.00,WSW,242,1.0,8.0,75,0.01,,,0.39,475.000000,,2013-09-01 15:55:00,
2013-09-01 12:05:00,79.0,70.0,-100.00,WSW,242,1.0,8.0,75,0.01,,,0.39,475.000000,,2013-09-01 16:05:00,
2013-09-01 12:43:00,82.0,71.0,-100.00,West,261,2.0,9.0,69,0.00,,,0.39,631.000000,,2013-09-01 16:43:00,
2013-09-01 12:53:00,82.0,71.0,-100.00,West,261,2.0,9.0,69,0.00,,,0.39,631.000000,,2013-09-01 16:53:00,
2013-09-01 13:03:00,82.0,71.0,-100.00,West,261,2.0,9.0,69,0.00,,,0.39,631.000000,,2013-09-01 17:03:00,
2013-09-01 13:42:00,84.0,73.0,-100.00,West,261,2.0,9.0,69,0.00,,,0.39,495.000000,,2013-09-01 17:42:00,
2013-09-01 13:52:00,84.0,73.0,-100.00,West,261,2.0,9.0,69,0.00,,,0.39,495.000000,,2013-09-01 17:52:00,
2013-09-01 14:02:00,84.0,73.0,-100.00,West,261,2.0,9.0,69,0.00,,,0.39,495.000000,,2013-09-01 18:02:00,
2013-09-01 14:42:00,82.0,73.0,-100.00,West,280,1.0,6.0,74,0.00,,,0.39,228.000000,,2013-09-01 18:42:00,
2013-09-01 14:52:00,82.0,73.0,-100.00,West,280,1.0,6.0,74,0.00,,,0.39,228.000000,,2013-09-01 18:52:00,
2013-09-01 15:02:00,82.0,73.0,-100.00,West,280,1.0,6.0,74,0.00,,,0.39,228.000000,,2013-09-01 19:02:00,
2013-09-01 15:42:00,86.0,73.0,-100.00,WNW,285,3.0,9.0,65,0.00,,,0.39,480.000000,,2013-09-01 19:42:00,
2013-09-01 15:52:00,86.0,73.0,-100.00,WNW,285,3.0,9.0,65,0.00,,,0.39,480.000000,,2013-09-01 19:52:00,
2013-09-01 16:02:00,86.0,73.0,-100.00,WNW,285,3.0,9.0,65,0.00,,,0.39,480.000000,,2013-09-01 20:02:00,
2013-09-01 16:42:00,88.0,71.0,-100.00,WNW,294,4.0,10.0,58,0.00,,,0.39,681.000000,,2013-09-01 20:42:00,
2013-09-01 16:52:00,88.0,71.0,-100.00,WNW,294,4.0,10.0,58,0.00,,,0.39,681.000000,,2013-09-01 20:52:00,
2013-09-01 17:02:00,88.0,71.0,-100.00,WNW,294,4.0,10.0,58,0.00,,,0.39,681.000000,,2013-09-01 21:02:00,
2013-09-01 17:44:00,87.0,69.0,-100.00,NW,317,2.0,8.0,56,0.00,,,0.39,473.000000,,2013-09-01 21:44:00,
2013-09-01 17:55:00,87.0,69.0,-100.00,NW,317,2.0,8.0,56,0.00,,,0.39,473.000000,,2013-09-01 21:55:00,
2013-09-01 18:04:00,87.0,69.0,-100.00,NW,317,2.0,8.0,56,0.00,,,0.39,473.000000,,2013-09-01 22:04:00,
2013-09-01 18:43:00,87.0,71.0,-100.00,NNW,333,2.0,7.0,59,0.00,,,0.39,319.000000,,2013-09-01 22:43:00,
2013-09-01 18:53:00,87.0,71.0,-100.00,NNW,333,2.0,7.0,59,0.00,,,0.39,319.000000,,2013-09-01 22:53:00,
2013-09-01 19:03:00,87.0,71.0,-100.00,NNW,333,2.0,7.0,59,0.00,,,0.39,319.000000,,2013-09-01 23:03:00,
2013-09-01 19:42:00,81.0,72.0,-100.00,SW,233,0.0,4.0,74,0.00,,,0.39,89.000000,,2013-09-01 23:42:00,
2013-09-01 19:53:00,81.0,72.0,-100.00,SW,233,0.0,4.0,74,0.00,,,0.39,89.000000,,2013-09-01 23:53:00,
2013-09-01 20:02:00,81.0,72.0,-100.00,SW,233,0.0,4.0,74,0.00,,,0.39,89.000000,,2013-09-02 00:02:00,
2013-09-01 20:42:00,78.0,72.0,-100.00,SW,229,0.0,4.0,82,0.00,,,0.39,27.000000,,2013-09-02 00:42:00,
2013-09-01 20:52:00,78.0,72.0,-100.00,SW,229,0.0,4.0,82,0.00,,,0.39,27.000000,,2013-09-02 00:52:00,
2013-09-01 21:02:00,78.0,72.0,-100.00,SW,229,0.0,4.0,82,0.00,,,0.39,27.000000,,2013-09-02 01:02:00,
2013-09-01 21:42:00,77.0,71.0,-100.00,WNW,295,0.0,3.0,83,0.00,,,0.22,1.000000,,2013-09-02 01:42:00,
2013-09-01 21:52:00,77.0,71.0,-100.00,WNW,295,0.0,3.0,83,0.00,,,0.22,1.000000,,2013-09-02 01:52:00,
2013-09-01 22:02:00,77.0,71.0,-100.00,WNW,295,0.0,3.0,83,0.00,,,0.22,1.000000,,2013-09-02 02:02:00,
2013-09-01 22:42:00,75.0,72.0,-100.00,West,273,0.0,4.0,90,0.00,,,0.17,0.000000,,2013-09-02 02:42:00,
2013-09-01 22:52:00,75.0,72.0,-100.00,West,273,0.0,4.0,90,0.00,,,0.17,0.000000,,2013-09-02 02:52:00,
2013-09-01 23:02:00,75.0,72.0,-100.00,West,273,0.0,4.0,90,0.00,,,0.17,0.000000,,2013-09-02 03:02:00,
2013-09-01 23:44:00,73.0,71.0,-100.00,NNW,327,0.0,4.0,93,0.00,,,0.17,0.000000,,2013-09-02 03:44:00,
2013-09-01 23:56:00,73.0,71.0,-100.00,NNW,327,0.0,4.0,93,0.00,,,0.17,0.000000,,2013-09-02 03:56:00,